Hourly Data Report for October 22, 2014

All times are specified in Local Standard Time (LST). Add 1 hour to adjust for Daylight Saving Time where and when it is observed.

SAINT JOHN A
NEW BRUNSWICK

45°18'58.000" N
65°53'24.000" W
108.80 m
8104901
71609
YSJ

Download Data

Hourly Data (October 2014)
Hourly Data Report for October 22, 2014
Temp Definition
°C
Dew Point Temp Definition
°C
Rel Hum Definition
%
Wind Dir Definition
10's deg

Wind Spd Definition
km/h
Visibility Definition
km
Stn Press Definition
kPa
Hmdx Definition


Wind Chill Definition


Weather Definition


TIME
00:00 Legend Double Dagger 7.9 6.1 88 3 8 24.1 101.14     Rain Showers
01:00 Legend Double Dagger 7.3 5.9 91 4 11 19.3 101.13     Rain Showers
02:00 Legend Double Dagger 7.2 5.2 87 3 15 24.1 101.13     Rain
03:00 Legend Double Dagger 7.2 4.9 85 3 14 24.1 101.07     Rain
04:00 Legend Double Dagger 7.6 4.6 81 3 9 24.1 101.07     Rain
05:00 Legend Double Dagger 8.6 4.4 75 5 15 24.1 101.08     Rain
06:00 Legend Double Dagger 8.6 4.8 77 4 15 24.1 101.14     Rain
07:00 Legend Double Dagger 9.0 5.2 77 6 21 24.1 101.18     LegendNANA
08:00 Legend Double Dagger 9.6 5.0 73 6 21 24.1 101.22     Cloudy
09:00 Legend Double Dagger 10.0 4.0 66 6 21 24.1 101.25     LegendNANA
10:00 Legend Double Dagger 10.6 4.1 64 5 17 24.1 101.25     LegendNANA
11:00 Legend Double Dagger 10.0 5.2 72 3 20 24.1 101.23     Rain Showers
12:00 Legend Double Dagger 8.9 5.3 78 3 21 24.1 101.15     Rain Showers
13:00 Legend Double Dagger 7.6 6.6 93 2 23 9.7 101.16     Rain Showers,Fog
14:00 Legend Double Dagger 7.7 7.0 95 3 28 9.7 101.12     Rain,Fog
15:00 Legend Double Dagger 7.4 6.8 96 3 26 24.1 101.06     Rain,Fog
16:00 Legend Double Dagger 7.4 6.8 96 3 26 8.1 101.00     Rain,Fog
17:00 Legend Double Dagger 7.3 6.9 97 2 37 9.7 100.98     Rain,Fog
18:00 Legend Double Dagger 7.1 6.7 97 5 28 12.9 100.96     Rain
19:00 Legend Double Dagger 7.3 6.9 97 4 22 4.8 100.94     Rain,Fog
20:00 Legend Double Dagger 7.7 7.1 96 2 21 6.4 100.97     Rain,Fog
21:00 Legend Double Dagger 7.5 7.2 98 3 25 3.2 100.92     Rain,Fog
22:00 Legend Double Dagger 7.9 7.6 98 3 21 4.8 100.89     Rain,Fog
23:00 Legend Double Dagger 8.5 8.1 97 3 19 12.9 100.89     Cloudy

Notes on Data Quality.

Legend

  • E = Estimated
  • M = Missing
  • NA = Not Available
  • ‡ = Partner data that is not subject to review by the National Climate Archives
Date modified: